Leesburg, VA

9:23 AM EDT on May 26, 2017 (GMT -0400)
Leesburg Executive

Weather History for KJYO - October, 2013

Change the Weather History Date:

Saturday, October 12, 2013

  Actual Average (KIAD) Record (KIAD)
Temperature  
Mean Temperature 62 °F -  
Max Temperature 66 °F 68 °F 83 °F (1995)
Min Temperature 59 °F 44 °F 25 °F (1964)
Degree Days  
Heating Degree Days 2    
Growing Degree Days 12 (Base 50)    
Moisture  
Dew Point 61 °F    
Average Humidity 98    
Maximum Humidity 100    
Minimum Humidity 88    
Precipitation  
Precipitation 0.58 in - - ()
Sea Level Pressure  
Sea Level Pressure 30.10 in    
Wind  
Wind Speed 6 mph (NNE)    
Max Wind Speed 9 mph    
Max Gust Speed 16 mph    
Visibility 7 miles    
Events Rain    
Averages and records for this station are not official NWS values.
T = Trace of Precipitation, MM = Missing Value Source: NWS Daily Summary

Daily Weather History Graph

Daily Weather History Graph

Search for Another Location

Airport or City:

Trip Planner

Search our weather history database for the weather conditions in past years. The results will help you decide how hot, cold, wet, or windy it might be!

Date:

Astronomy

Oct. 12, 2013 Rise Set
Actual Time 7:17 AM EDT 6:35 PM EDT
Civil Twilight 6:50 AM EDT 7:02 PM EDT
Nautical Twilight 6:19 AM EDT 7:33 PM EDT
Astronomical Twilight 5:48 AM EDT 8:04 PM EDT
Moon 2:41 PM EDT (10/12) 12:21 AM EDT (10/12)
Length of Visible Light 12h 12m
Length of Day
11h 18m
First Quarter, 58% of the Moon is Illuminated
Oct 12
First Quarter
Oct 18
Full
Oct 26
Last Quarter
Nov 3
New
Nov 10
First Quarter

Hourly Weather History & Observations

Time (EDT) Temp. Dew Point Humidity Pressure Visibility Wind Dir Wind Speed Gust Speed Precip Events Conditions
12:15 AM 60.8 °F 60.8 °F 100% 30.01 in 5.0 mi NNE 8.1 mph - 0.06 in Rain Heavy Rain
12:35 AM 60.8 °F 60.8 °F 100% 30.01 in 10.0 mi NNE 8.1 mph - 0.09 in Rain Light Rain
12:55 AM 60.8 °F 60.8 °F 100% 30.02 in 5.0 mi NNE 5.8 mph - 0.09 in   Overcast
1:15 AM 60.8 °F 60.8 °F 100% 30.01 in 3.0 mi NNE 5.8 mph - N/A   Overcast
1:35 AM 60.8 °F 60.8 °F 100% 30.01 in 4.0 mi NE 6.9 mph - 0.01 in Rain Light Rain
1:55 AM 60.8 °F 60.8 °F 100% 30.02 in 4.0 mi NNE 5.8 mph - 0.03 in Rain Light Rain
2:15 AM 60.8 °F 60.8 °F 100% 30.02 in 4.0 mi NNE 5.8 mph - 0.06 in Rain Heavy Rain
2:35 AM 60.8 °F 60.8 °F 100% 30.02 in 4.0 mi NNE 5.8 mph - 0.19 in Rain Rain
2:55 AM 60.8 °F 60.8 °F 100% 30.02 in 7.0 mi NNE 3.5 mph - 0.21 in Rain Rain
3:15 AM 60.8 °F 60.8 °F 100% 30.02 in 4.0 mi North 3.5 mph - 0.02 in Rain Rain
3:35 AM 60.8 °F 60.8 °F 100% 30.02 in 5.0 mi NNE 5.8 mph - 0.04 in Rain Light Rain
3:55 AM 60.8 °F 60.8 °F 100% 30.03 in 4.0 mi NNE 8.1 mph - 0.04 in   Light Drizzle
4:15 AM 60.8 °F 60.8 °F 100% 30.03 in 4.0 mi NNE 3.5 mph - N/A   Drizzle
4:35 AM 60.8 °F 60.8 °F 100% 30.04 in 7.0 mi NNE 3.5 mph - N/A   Overcast
4:55 AM 60.8 °F 60.8 °F 100% 30.04 in 5.0 mi NNE 3.5 mph - N/A   Overcast
5:15 AM 60.8 °F 60.8 °F 100% 30.05 in 3.0 mi NNE 4.6 mph - N/A Rain Rain
5:35 AM 60.8 °F 60.8 °F 100% 30.05 in 2.5 mi NNE 4.6 mph - 0.01 in   Drizzle
5:55 AM 60.8 °F 60.8 °F 100% 30.05 in 3.0 mi NNE 3.5 mph - 0.01 in Rain Light Rain
6:15 AM 60.8 °F 60.8 °F 100% 30.06 in 2.5 mi North 5.8 mph - N/A Rain Light Rain
6:35 AM 60.8 °F 60.8 °F 100% 30.06 in 4.0 mi North 8.1 mph - N/A   Overcast
6:55 AM 60.8 °F 60.8 °F 100% 30.06 in 5.0 mi NNE 8.1 mph - N/A   Overcast
7:15 AM 60.8 °F 60.8 °F 100% 30.07 in 7.0 mi NNE 6.9 mph - N/A   Overcast
7:35 AM 60.8 °F 60.8 °F 100% 30.07 in 7.0 mi NNE 8.1 mph - N/A   Overcast
7:55 AM 60.8 °F 60.8 °F 100% 30.08 in 10.0 mi NNE 6.9 mph 16.1 mph N/A   Overcast
8:15 AM 60.8 °F 60.8 °F 100% 30.08 in 10.0 mi NNE 8.1 mph - N/A   Overcast
8:35 AM 60.8 °F 60.8 °F 100% 30.09 in 10.0 mi NNE 5.8 mph - N/A   Overcast
8:55 AM 60.8 °F 60.8 °F 100% 30.10 in 10.0 mi NNE 8.1 mph - N/A   Overcast
9:15 AM 60.8 °F 60.8 °F 100% 30.10 in 10.0 mi NNE 6.9 mph - N/A   Overcast
9:35 AM 60.8 °F 60.8 °F 100% 30.10 in 10.0 mi NNE 4.6 mph - N/A   Overcast
9:55 AM 62.6 °F 62.6 °F 100% 30.11 in 10.0 mi NNE 4.6 mph - N/A   Overcast
10:15 AM 62.6 °F 62.6 °F 100% 30.11 in 2.5 mi NNE 4.6 mph - N/A Rain Rain
10:35 AM 60.8 °F 60.8 °F 100% 30.12 in 1.8 mi NNE 5.8 mph - 0.02 in Rain Heavy Rain
10:55 AM 60.8 °F 60.8 °F 100% 30.12 in 3.0 mi NNE 5.8 mph - 0.03 in   Light Drizzle
11:15 AM 60.8 °F 60.8 °F 100% 30.12 in 5.0 mi NNE 4.6 mph - N/A   Overcast
11:35 AM 62.6 °F 62.6 °F 100% 30.12 in 5.0 mi NNE 4.6 mph - N/A   Overcast
11:55 AM 62.6 °F 62.6 °F 100% 30.13 in 7.0 mi NE 5.8 mph - N/A   Overcast
12:15 PM 62.6 °F 62.6 °F 100% 30.13 in 2.0 mi NE 4.6 mph - N/A   Overcast
12:35 PM 62.6 °F 62.6 °F 100% 30.13 in 2.5 mi NE 8.1 mph - N/A   Overcast
12:55 PM 62.6 °F 62.6 °F 100% 30.12 in 4.0 mi ENE 4.6 mph - N/A   Overcast
1:15 PM 62.6 °F 62.6 °F 100% 30.11 in 4.0 mi NNE 3.5 mph - N/A   Overcast
1:35 PM 62.6 °F 62.6 °F 100% 30.11 in 5.0 mi North 6.9 mph - N/A   Overcast
1:55 PM 62.6 °F 62.6 °F 100% 30.10 in 10.0 mi North 5.8 mph - N/A   Overcast
2:15 PM 64.4 °F 62.6 °F 94% 30.10 in 10.0 mi North 8.1 mph - N/A   Overcast
2:35 PM 64.4 °F 62.6 °F 94% 30.11 in 10.0 mi NNE 5.8 mph - N/A   Overcast
2:55 PM 64.4 °F 62.6 °F 94% 30.11 in 10.0 mi NE 8.1 mph - N/A   Overcast
3:15 PM 66.2 °F 62.6 °F 88% 30.11 in 10.0 mi NE 4.6 mph - N/A   Overcast
3:35 PM 66.2 °F 62.6 °F 88% 30.11 in 10.0 mi NE 6.9 mph - N/A   Overcast
3:55 PM 66.2 °F 62.6 °F 88% 30.11 in 10.0 mi NNE 3.5 mph - N/A   Overcast
4:15 PM 66.2 °F 62.6 °F 88% 30.11 in 10.0 mi NE 3.5 mph - N/A   Overcast
4:35 PM 66.2 °F 62.6 °F 88% 30.12 in 10.0 mi NE 6.9 mph - N/A   Overcast
4:55 PM 64.4 °F 62.6 °F 94% 30.13 in 10.0 mi NE 9.2 mph - N/A   Overcast
5:15 PM 62.6 °F 62.6 °F 100% 30.14 in 7.0 mi Calm Calm - N/A Rain Light Rain
5:35 PM 62.6 °F 62.6 °F 100% 30.14 in 10.0 mi NNE 3.5 mph - N/A   Overcast
5:55 PM 62.6 °F 62.6 °F 100% 30.15 in 10.0 mi NNE 4.6 mph - N/A Rain Light Rain
6:15 PM 62.6 °F 60.8 °F 94% 30.16 in 3.0 mi North 3.5 mph - 0.01 in   Drizzle
6:35 PM 60.8 °F 60.8 °F 100% 30.16 in 2.5 mi WNW 3.5 mph - 0.07 in Rain Heavy Rain
6:55 PM 60.8 °F 60.8 °F 100% 30.16 in 7.0 mi WNW 4.6 mph - 0.10 in Rain Rain
7:15 PM 60.8 °F 60.8 °F 100% 30.16 in 10.0 mi NNW 4.6 mph - N/A   Overcast
7:35 PM 60.8 °F 60.8 °F 100% 30.17 in 10.0 mi North 4.6 mph - N/A   Overcast
7:55 PM 60.8 °F 60.8 °F 100% 30.16 in 10.0 mi North 6.9 mph - N/A   Overcast
8:15 PM 60.8 °F 60.8 °F 100% 30.16 in 10.0 mi North 6.9 mph - N/A   Overcast
8:35 PM 60.8 °F 59.0 °F 94% 30.17 in 10.0 mi North 6.9 mph - N/A   Overcast
8:55 PM 60.8 °F 59.0 °F 94% 30.17 in 10.0 mi North 4.6 mph - N/A   Overcast
9:15 PM 60.8 °F 59.0 °F 94% 30.18 in 10.0 mi North 4.6 mph - N/A   Overcast
9:35 PM 60.8 °F 59.0 °F 94% 30.18 in 10.0 mi NNE 6.9 mph - N/A   Overcast
9:55 PM 60.8 °F 59.0 °F 94% 30.18 in 10.0 mi NNE 5.8 mph - N/A   Overcast
10:15 PM 60.8 °F 59.0 °F 94% 30.19 in 5.0 mi NE 8.1 mph - 0.01 in Rain Rain
10:35 PM 59.0 °F 59.0 °F 100% 30.19 in 5.0 mi NNE 4.6 mph - 0.04 in Rain Rain
10:55 PM 59.0 °F 59.0 °F 100% 30.19 in 5.0 mi NNE 4.6 mph - 0.06 in Rain Light Rain
11:15 PM 59.0 °F 59.0 °F 100% 30.19 in 7.0 mi North 4.6 mph - N/A Rain Light Rain
11:35 PM 59.0 °F 59.0 °F 100% 30.19 in 5.0 mi NNE 5.8 mph - 0.01 in Rain Light Rain
11:55 PM 59.0 °F 59.0 °F 100% 30.19 in 4.0 mi NNE 5.8 mph - 0.01 in   Overcast